Home > Weather > Saltillo > Past weeks

Flag for Mexico Past Weather in Saltillo, Coahuila de Zaragoza, Mexico — Yesterday and Last 2 Weeks

Now
82 °F

Passing clouds.


Feels Like: 82 °F
Forecast: 66 / 83 °F
Wind: No wind

Location: Saltillo Airport

Current Time: Jul 30, 2016 at 11:55:48 AM

Latest Report: Jul 30, 2016 at 11:45 AM


Visibility: 10 mi

Pressure: 30.26 "Hg (25.23 "Hg at 1603m altitude)

Humidity: 45%

Dew Point: 59 °F

Location of SaltilloLocation

Past Weather in Saltillo — Graph

°F

Saltillo Temperature Yesterday

Maximum temperature yesterday: 84 °F (at 1:45 PM)
Minimum temperature yesterday: 64 °F (at 1:45 AM)
Average temperature yesterday: 74 °F

High & Low Weather Summary for the Past Weeks

 TemperatureHumidityPressure
High95 °F (Jul 15, 1:40 PM)94% (Jul 29, 6:45 AM)30.36 "Hg (Jul 29, 6:45 AM)
Low63 °F (Jul 28, 12:45 AM)35% (Jul 16, 11:40 AM)30.10 "Hg (Jul 24, 8:40 PM)
Average77 °F62%30.22 "Hg
* Reported Jul 15 10:40 AM — Jul 30 10:45 AM, Saltillo, Weather by CustomWeather, © 2016

Note: Actual official high and low records may vary slightly from our data, if they occured in-between our weather recording intervals... More about our weather records

Advertising

Saltillo Weather History for the Previous 24 Hours

Scroll right to see more
 ConditionsComfort  
Time TempWeatherWind HumidityBarometerVisibility
10:45 AM
Sat, Jul 30
75 °FPassing clouds.No wind74%30.26 "Hg10 mi
9:45 AM70 °FScattered clouds.No wind88%30.26 "Hg8 mi
7:45 AM66 °FPartly cloudy.No wind88%30.24 "Hg8 mi
6:45 AM66 °FPassing clouds.No wind94%30.24 "Hg6 mi
6:00 AM66 °FPassing clouds.No wind94%30.23 "Hg4 mi
4:45 AM64 °FPassing clouds.No wind68%30.20 "Hg10 mi
3:45 AM64 °FPartly cloudy.No wind68%30.22 "Hg10 mi
12:45 AM68 °FPartly cloudy.No wind69%30.22 "Hg10 mi
11:45 PM
Fri, Jul 29
68 °FPartly cloudy.No wind69%30.22 "Hg10 mi
10:45 PM70 °FPassing clouds.No wind64%30.20 "Hg10 mi
9:45 PM70 °FPassing clouds.No wind64%30.20 "Hg10 mi
8:45 PM72 °FPartly sunny.No wind61%30.17 "Hg10 mi
7:45 PM73 °FBroken clouds.No wind61%30.17 "Hg10 mi
5:45 PM79 °FBroken clouds.9 mph58%30.14 "Hg10 mi
4:45 PM81 °FBroken clouds.17 mph54%30.14 "Hg10 mi
3:45 PM84 °FBroken clouds.17 mph51%30.16 "Hg10 mi
2:45 PM84 °FPartly sunny.14 mph51%30.19 "Hg10 mi
1:45 PM84 °FPartly sunny.21 mph51%30.21 "Hg8 mi
12:45 PM82 °FBroken clouds.8 mph55%30.22 "Hg8 mi
11:45 AM82 °FScattered clouds.6 mph55%30.23 "Hg8 mi
Weather by CustomWeather, © 2016

See weather overviewHow to use our weather pages